When you browse on this site, cookies collect data to enhance your experience and personalize the content and advertising you see.
Visit our Privacy Policy to learn more. By continuing to use the site, you agree to this use of cookies and data.
  • In Austria
  • List of Countries
  • For 7 days
  • Water Temperature
  • Satellite Maps
  • Weather Map
  • News
  • Weather Widgets
  • user-avatar
    Login

    Hourly Weather Zakopane

    Today, 19 May, Sunday

    Time Temperature Precipitation Wind Pressure Humidity
    00:00 +9°C° 0 mm 1 mps 678 mmHg 93%
    01:00 +9°C° 0 mm 1 mps 677 mmHg 93%
    02:00 +9°C° 0 mm 1 mps 677 mmHg 94%
    03:00 +9°C° 0 mm 1 mps 677 mmHg 94%
    04:00 +9°C° 0 mm 1 mps 677 mmHg 94%
    05:00 +11°C° 0 mm 1 mps 678 mmHg 88%
    06:00 +13°C° 0 mm 1 mps 678 mmHg 82%
    07:00 +15°C° 0 mm 1 mps 679 mmHg 76%
    08:00 +18°C° 0.1 mm 1 mps 679 mmHg 68%
    09:00 +18°C° 0.1 mm 2 mps 679 mmHg 61%
    10:00 +19°C° 0.1 mm 2 mps 679 mmHg 54%
    11:00 +19°C° 0.2 mm 2 mps 679 mmHg 53%
    12:00 +20°C° 0.2 mm 2 mps 679 mmHg 53%
    13:00 +19°C° 0 mm 3 mps 679 mmHg 55%
    14:00 +19°C° 0.4 mm 3 mps 679 mmHg 58%
    15:00 +19°C° 0.4 mm 3 mps 679 mmHg 61%
    16:00 +18°C° 0.4 mm 3 mps 678 mmHg 64%
    17:00 +17°C° 0 mm 2 mps 678 mmHg 71%
    18:00 +15°C° 0 mm 2 mps 677 mmHg 79%
    19:00 +13°C° 0 mm 2 mps 677 mmHg 87%
    20:00 +13°C° 0 mm 2 mps 677 mmHg 90%
    21:00 +12°C° 0 mm 1 mps 677 mmHg 93%
    22:00 +11°C° 0 mm 1 mps 676 mmHg 96%
    23:00 +11°C° 0.1 mm 1 mps 676 mmHg 95%

    Tomorrow, 20 May, Monday

    Time Temperature Precipitation Wind Pressure Humidity
    00:00 +11°C° 0.1 mm 1 mps 676 mmHg 93%
    01:00 +11°C° 0.1 mm 1 mps 676 mmHg 92%
    02:00 +11°C° 0.2 mm 1 mps 675 mmHg 93%
    03:00 +10°C° 0.2 mm 2 mps 675 mmHg 93%
    04:00 +10°C° 0.2 mm 2 mps 675 mmHg 93%
    05:00 +12°C° 0.2 mm 2 mps 675 mmHg 92%
    06:00 +13°C° 0.2 mm 2 mps 675 mmHg 91%
    07:00 +14°C° 0.2 mm 2 mps 676 mmHg 89%
    08:00 +14°C° 0.1 mm 3 mps 676 mmHg 85%
    09:00 +16°C° 0.1 mm 3 mps 676 mmHg 80%
    10:00 +17°C° 0.1 mm 3 mps 677 mmHg 75%
    11:00 +17°C° 0.1 mm 3 mps 677 mmHg 69%
    12:00 +18°C° 0.1 mm 4 mps 677 mmHg 62%
    13:00 +19°C° 0.1 mm 4 mps 678 mmHg 56%
    14:00 +19°C° 0 mm 3 mps 678 mmHg 57%
    15:00 +18°C° 0 mm 3 mps 678 mmHg 57%
    16:00 +18°C° 0 mm 3 mps 677 mmHg 58%
    17:00 +16°C° 0 mm 3 mps 677 mmHg 66%
    18:00 +14°C° 0 mm 2 mps 677 mmHg 74%
    19:00 +13°C° 0 mm 2 mps 676 mmHg 83%
    20:00 +12°C° 0 mm 2 mps 676 mmHg 87%
    21:00 +10°C° 0 mm 2 mps 676 mmHg 91%
    22:00 +9°C° 0 mm 2 mps 676 mmHg 95%
    23:00 +9°C° 0 mm 2 mps 676 mmHg 95%

    Day after tomorrow, 21 May, Tuesday

    Time Temperature Precipitation Wind Pressure Humidity
    00:00 +9°C° 0 mm 2 mps 676 mmHg 95%
    01:00 +8°C° 0 mm 2 mps 677 mmHg 96%
    02:00 +8°C° 0 mm 2 mps 676 mmHg 96%
    03:00 +8°C° 0 mm 1 mps 676 mmHg 96%
    04:00 +8°C° 0 mm 1 mps 676 mmHg 96%
    05:00 +9°C° 0 mm 1 mps 676 mmHg 89%
    06:00 +11°C° 0 mm 1 mps 677 mmHg 81%
    07:00 +12°C° 0 mm 1 mps 677 mmHg 73%
    08:00 +14°C° 0 mm 1 mps 677 mmHg 67%
    09:00 +15°C° 0 mm 1 mps 677 mmHg 62%
    10:00 +16°C° 0 mm 1 mps 678 mmHg 56%
    11:00 +16°C° 0.2 mm 1 mps 678 mmHg 58%
    12:00 +17°C° 0.2 mm 2 mps 678 mmHg 60%
    13:00 +17°C° 0.2 mm 2 mps 677 mmHg 62%
    14:00 +16°C° 0.8 mm 2 mps 677 mmHg 69%
    15:00 +15°C° 0.8 mm 2 mps 677 mmHg 77%
    16:00 +14°C° 0.8 mm 2 mps 677 mmHg 84%
    17:00 +13°C° 0.1 mm 2 mps 677 mmHg 86%
    18:00 +12°C° 0.1 mm 2 mps 676 mmHg 89%
    19:00 +12°C° 0.1 mm 2 mps 676 mmHg 91%
    20:00 +10°C° 0 mm 2 mps 676 mmHg 92%
    21:00 +10°C° 0 mm 2 mps 677 mmHg 93%
    22:00 +9°C° 0 mm 2 mps 677 mmHg 95%
    23:00 +9°C° 0.1 mm 2 mps 677 mmHg 95%

    22 May, Wednesday

    Time Temperature Precipitation Wind Pressure Humidity
    00:00 +9°C° 0.1 mm 2 mps 677 mmHg 96%
    01:00 +9°C° 0.1 mm 2 mps 677 mmHg 96%
    02:00 +9°C° 0.8 mm 2 mps 677 mmHg 96%
    03:00 +8°C° 0.8 mm 2 mps 677 mmHg 97%
    04:00 +8°C° 0.8 mm 3 mps 677 mmHg 97%
    05:00 +9°C° 1.3 mm 3 mps 677 mmHg 96%
    06:00 +9°C° 1.3 mm 3 mps 677 mmHg 96%
    07:00 +9°C° 1.3 mm 3 mps 677 mmHg 96%
    08:00 +10°C° 0.6 mm 3 mps 677 mmHg 95%
    09:00 +10°C° 0.6 mm 3 mps 678 mmHg 94%
    10:00 +10°C° 0.6 mm 3 mps 678 mmHg 93%
    11:00 +11°C° 0.2 mm 3 mps 678 mmHg 89%
    12:00 +12°C° 0.2 mm 3 mps 678 mmHg 86%
    13:00 +13°C° 0.2 mm 3 mps 679 mmHg 82%
    14:00 +13°C° 1.1 mm 3 mps 678 mmHg 86%
    15:00 +12°C° 1.1 mm 3 mps 678 mmHg 91%
    16:00 +12°C° 1.1 mm 2 mps 678 mmHg 95%
    17:00 +12°C° 1.1 mm 2 mps 678 mmHg 95%
    18:00 +10°C° 1.1 mm 2 mps 678 mmHg 96%
    19:00 +10°C° 1.1 mm 2 mps 678 mmHg 97%
    20:00 +10°C° 0.8 mm 2 mps 678 mmHg 97%
    21:00 +10°C° 0.8 mm 2 mps 678 mmHg 97%
    22:00 +10°C° 0.8 mm 2 mps 679 mmHg 97%
    23:00 +10°C° 3.2 mm 2 mps 679 mmHg 97%

    23 May, Thursday

    Time Temperature Precipitation Wind Pressure Humidity
    00:00 +10°C° 3.2 mm 2 mps 679 mmHg 97%
    01:00 +10°C° 3.2 mm 2 mps 679 mmHg 97%
    02:00 +10°C° 1.4 mm 2 mps 678 mmHg 98%
    03:00 +10°C° 1.4 mm 2 mps 678 mmHg 98%
    04:00 +9°C° 1.4 mm 2 mps 678 mmHg 98%
    05:00 +9°C° 2.3 mm 2 mps 679 mmHg 98%
    06:00 +9°C° 2.3 mm 2 mps 679 mmHg 98%
    07:00 +9°C° 2.3 mm 2 mps 679 mmHg 98%
    08:00 +9°C° 1 mm 2 mps 680 mmHg 97%
    09:00 +9°C° 1 mm 2 mps 680 mmHg 97%
    10:00 +9°C° 1 mm 2 mps 681 mmHg 97%
    11:00 +9°C° 0.1 mm 2 mps 681 mmHg 95%
    12:00 +9°C° 0.1 mm 3 mps 681 mmHg 93%
    13:00 +9°C° 0.1 mm 3 mps 682 mmHg 91%
    14:00 +9°C° 0 mm 3 mps 682 mmHg 89%
    15:00 +9°C° 0 mm 3 mps 682 mmHg 88%
    16:00 +8°C° 0 mm 3 mps 682 mmHg 87%
    17:00 +8°C° 0.1 mm 3 mps 682 mmHg 89%
    18:00 +7°C° 0.1 mm 2 mps 682 mmHg 90%
    19:00 +6°C° 0.1 mm 2 mps 682 mmHg 92%
    20:00 +6°C° 0 mm 2 mps 682 mmHg 93%
    21:00 +5°C° 0 mm 2 mps 682 mmHg 94%
    22:00 +6°C° 0 mm 1 mps 682 mmHg 94%
    23:00 +6°C° 0 mm 1 mps 682 mmHg 95%

    24 May, Friday

    Time Temperature Precipitation Wind Pressure Humidity
    00:00 +6°C° 0 mm 1 mps 682 mmHg 96%
    01:00 +6°C° 0 mm 1 mps 682 mmHg 97%
    02:00 +6°C° 0 mm 1 mps 682 mmHg 97%
    03:00 +6°C° 0 mm 1 mps 682 mmHg 97%
    04:00 +6°C° 0 mm 1 mps 682 mmHg 97%
    05:00 +6°C° 0 mm 2 mps 682 mmHg 90%
    06:00 +7°C° 0 mm 2 mps 683 mmHg 83%
    07:00 +8°C° 0 mm 2 mps 683 mmHg 76%
    08:00 +10°C° 0 mm 2 mps 683 mmHg 67%
    09:00 +12°C° 0 mm 2 mps 683 mmHg 58%
    10:00 +13°C° 0 mm 2 mps 683 mmHg 49%
    11:00 +14°C° 0 mm 2 mps 683 mmHg 47%
    12:00 +15°C° 0 mm 2 mps 683 mmHg 45%
    13:00 +16°C° 0 mm 2 mps 683 mmHg 43%
    14:00 +16°C° 0 mm 2 mps 682 mmHg 46%
    15:00 +16°C° 0 mm 2 mps 682 mmHg 50%
    16:00 +15°C° 0 mm 2 mps 681 mmHg 53%
    17:00 +14°C° 0 mm 2 mps 681 mmHg 63%
    18:00 +12°C° 0 mm 1 mps 680 mmHg 74%
    19:00 +10°C° 0 mm 1 mps 680 mmHg 84%
    20:00 +9°C° 0 mm 1 mps 680 mmHg 88%
    21:00 +8°C° 0 mm 1 mps 680 mmHg 91%
    22:00 +6°C° 0 mm 0 mps 680 mmHg 94%
    23:00 +7°C° 0 mm 1 mps 680 mmHg 94%
    Show more